Location: Notre Dame Regional High School Observatory
(37.3056°N, 89.6097°W)
Time: 07:54:43
(UTC-05:00)

Okean 2 Rocket - Visible Passes

Search period start: 24 July 2016 00:00
Search period end: 03 August 2016 00:00
Orbit: 616 x 643 km, 82.5° (Epoch: 23 July)

Date Brightness Start Highest point End Pass type
(mag) Time Alt. Az. Time Alt. Az. Time Alt. Az.
24 Jul 3.2 22:02:50 42° SE 22:03:55 53° E 22:08:14 10° NNE visible
24 Jul 5.9 23:40:45 10° W 23:42:20 12° WNW 23:43:54 10° NW visible
25 Jul 3.2 22:22:51 37° SSW 22:24:32 70° W 22:28:57 10° N visible
26 Jul 4.6 21:05:30 14° ESE 21:07:29 18° E 21:10:28 10° NE visible
26 Jul 4.6 22:42:49 19° SW 22:45:15 32° WNW 22:49:15 10° NNW visible
27 Jul 3.7 21:25:23 20° SSE 21:27:55 37° E 21:31:59 10° NNE visible
27 Jul 5.7 23:03:21 10° WSW 23:06:08 16° WNW 23:08:54 10° NW visible
28 Jul 3.0 21:45:11 18° S 21:48:29 82° E 21:52:54 10° N visible
29 Jul 4.0 22:04:55 10° SSW 22:09:09 46° W 22:13:24 10° N visible
30 Jul 4.1 20:48:16 10° SE 20:51:56 26° E 20:55:36 10° NNE visible
30 Jul 5.4 22:26:30 10° SW 22:29:57 22° WNW 22:33:25 10° NNW visible
31 Jul 3.1 21:08:08 10° S 21:12:27 56° E 21:16:46 10° NNE visible
31 Jul 6.1 22:49:41 10° W 22:50:53 11° WNW 22:52:05 10° NW visible
01 Aug 3.4 21:28:41 10° SSW 21:33:04 66° W 21:37:27 10° N visible
02 Aug 4.9 21:49:54 10° SW 21:53:48 31° WNW 21:57:43 10° NNW visible
